Погода в Архангельском

Украина / Херсонская область     47°25′48″N   33°24′23″E
темп.,
°C
ветер,
м/с
пор.,
м/с
влажн.,
%
обл.,
%
осадки,
мм/ч
давл.,
гПа
погр.,
м
9 марта, вт
вт923:000сз378387 0.0 1015268
02:00−1сз497771 0.0 1016331
05:00−2сз59710 0.0 1017532
08:00−2ссз58610 0.0 1019726
11:00+1сз56470 0.0 10201350
14:00+1сз565250 0.0 10201348
17:000сз455696 0.0 10211247
20:00−3ссз357290 0.0 1023161
10 марта, ср
ср1023:00−3ссв26661 0.0 1024319
02:00−4ссв24650 0.0 1026376
05:00−4св356824 0.0 1025405
08:00−4всв355961 0.0 1026574
11:00−1в4541100 0.0 1026882
14:000в4535100 0.0 10251011
17:00−2в4643100 0.0 1023508
20:00−3св3652100 0.0 1024174
11 марта, чт
чт1123:00−3всв4855100 0.0 1024355
02:00−3всв4855100 0.0 1024375
05:00−3всв4752100 0.0 1024384
08:00−2всв684367 0.0 1025745
11:00+1всв673242 0.0 10251162
14:00+2в563233 0.0 10241422
17:00+1всв35450 0.0 1024238
20:00−3всв48570 0.0 1026163
12 марта, пт
пт1223:00−3в38670 0.0 1027233
02:00−4юв36680 0.0 1027186
05:00−4юв36640 0.0 1028254
08:00−3юв575146 0.0 1028555
11:00−1юв563985 0.0 1028898
14:00+1ююв672871 0.0 10261052
17:000ююв594386 0.0 1025669
20:00−3ююв6116193 0.0 1026495
13 марта, сб
сб1323:00−3ююв71266100 0.1 1026496
02:00−2ююв7126999 0.1 1024530
05:00−2ююв71291100 0.5 1024433
08:00+1ю71267100 0.6 1024655
11:00+4ю71061100 0.0 1024849
14:00+5ююв6854100 0.0 10231073
17:00+4ююв4858100 0.0 1022497
20:00+1юв61062100 0.0 1022405